STARLINK-1934, 46792

Orbit data source: Space-Track

STARLINK-1934, 46792 is a payload satellite owned by SpaceX/Seattle (US) in LEO that was launched on Sat, 24 Oct 2020 UTC via an FALCON 9 launch vehicle from the Air Force Eastern Test Range (AFETR). Payloads include a variety of satellites, spacecraft, and rockets equipped with specific instruments for various scientific and technological missions. These include communications satellites like Starlink; space stations such as the ISS; scientific satellites like the Hubble; Earth observation satellites from companies like Planet Labs, Umbra, and HawkEye 360; GPS; miniature CubeSats for education and research; and military/defense satellites.

Loading next visibility...
STARLINK-1934 details
Identifier
46792, 2020-074BF
Orbit
LEO
Last TLE update9 hours ago
Origin
Flag of USSpaceX/Seattle (US)
ManufacturerSpaceX/Seattle
MissionOperational Commercial Communications
Bus & MotorSTARLINK, Unknown motor
Mass260 kg wet, ~248 kg dry
Launch date (UTC)
2020-10-24 (4 years ago)
Launch vehicle
FALCON 9
Launch site
Air Force Eastern Test Range (AFETR)
Object type
Payload
Rocket body
Debris
Shape & HBRBox + 1 Pan, 8.86 m
Radar Cross Section13.562 m², Large (>1 m²)

Expand to show TLE details & history

TLE from 9 hours ago
0 STARLINK-1934
1 46792U 20074BF  24361.33020642  .00002003  00000-0  15338-3 0  9995
2 46792  53.0538 119.4914 0001633  86.9653 273.1523 15.06393388230423
Epoch: 2024-12-26T07:55Z
Definitive object data (Epoch: 2024-12-26T07:55:29.834Z)
Latitude-0.00002°
Longitude-94.69407°
Altitude548.049 km
Speed7.589 km/s
True Right ascension07h 57m 57s
True Declination0° 00' 00"
Sunlit
Object was in full shadow at TLE epoch
Visualization TLE readout
Latitude-19.3805°
Longitude-111.71634°
Altitude552.998 km
Speed7.585 km/s
Apparent Right ascension05h 56m 26s
Apparent Declination-29° 58' 23"
Sunlit
Object is in full shadow
Visualization observer readout
Local Sidereal Time16:44:34
Azimuth298.581° NW
Elevation-72.285°
Doppler factor1
Orbital elements
Apogee altitude548.634 km
Perigee altitude546.372 km
Semi-major axis6,925.64 km
Eccentricity0.0001633
Inclination53.0538°
RAAN119.4914°
Arg. of periapsis86.9653°
True anomaly273.13362°
Mean anomaly273.1523°
Eccentric anomaly273.14296°
Mean motion3.76577 °/min
BSTAR0.00015338
Orbital period95.6 mins
Loading maneuver chart data...

STARLINK-1934 Visibility forecast

Observer location: undefined°, undefined

Span
Click to sort rows by Start time (UTC) header in descending order
Start Az.
Max El. time (UTC)
Max El. Az.
Max El.
End time (UTC)
End Az.
7 mins2024-12-26 17:59:15.504Z305.876° NW2024-12-26 18:02:15.504Z274.515° WNW42.279°2024-12-26 18:06:15.504Z138.053° SSE
4 mins2024-12-27 09:34:15.504Z155.752° SSE2024-12-27 09:35:15.504Z136.764° SSE19.135°2024-12-27 09:38:15.504Z84.257° E
6 mins2024-12-27 11:12:15.504Z251.643° W2024-12-27 11:15:15.504Z348.108° N38.516°2024-12-27 11:18:15.504Z40.921° NE
5 mins2024-12-27 16:14:15.504Z337.778° N2024-12-27 16:16:15.504Z16.153° NNE24.466°2024-12-27 16:19:15.504Z78.227° E
|